Météo par heure à Aarwangen

Ce jour, 13 Avril, Mardi

Heure Température Précipitation Vent Pression Humidité
00:00 -2°C° 0 mm 1 m/s 726 mmHg 94%
01:00 -2°C° 0 mm 1 m/s 727 mmHg 95%
02:00 -3°C° 0 mm 1 m/s 727 mmHg 95%
03:00 -3°C° 0 mm 1 m/s 727 mmHg 95%
04:00 -3°C° 0 mm 1 m/s 727 mmHg 95%
05:00 -3°C° 0 mm 0 m/s 727 mmHg 93%
06:00 -2°C° 0 mm 0 m/s 727 mmHg 92%
07:00 -2°C° 0 mm 0 m/s 727 mmHg 90%
08:00 +1°C° 0 mm 1 m/s 727 mmHg 84%
09:00 +3°C° 0 mm 1 m/s 727 mmHg 77%
10:00 +4°C° 0 mm 2 m/s 727 mmHg 70%
11:00 +5°C° 0.1 mm 2 m/s 727 mmHg 66%
12:00 +6°C° 0.1 mm 2 m/s 726 mmHg 62%
13:00 +6°C° 0.1 mm 2 m/s 726 mmHg 58%
14:00 +6°C° 0.2 mm 2 m/s 726 mmHg 62%
15:00 +5°C° 0.2 mm 3 m/s 726 mmHg 66%
16:00 +5°C° 0.2 mm 3 m/s 726 mmHg 70%
17:00 +5°C° 0.2 mm 2 m/s 726 mmHg 77%
18:00 +3°C° 0.2 mm 2 m/s 726 mmHg 85%
19:00 +3°C° 0.2 mm 1 m/s 726 mmHg 93%
20:00 +2°C° 0 mm 1 m/s 726 mmHg 94%
21:00 +1°C° 0 mm 1 m/s 726 mmHg 95%
22:00 +1°C° 0 mm 1 m/s 727 mmHg 96%
23:00 0°C° 0 mm 1 m/s 726 mmHg 96%

Demain, 14 Avril, Mercredi

Heure Température Précipitation Vent Pression Humidité
00:00 -1°C° 0 mm 1 m/s 726 mmHg 96%
01:00 -1°C° 0 mm 1 m/s 726 mmHg 95%
02:00 -2°C° 0 mm 1 m/s 726 mmHg 95%
03:00 -2°C° 0 mm 1 m/s 726 mmHg 95%
04:00 -2°C° 0 mm 1 m/s 725 mmHg 95%
05:00 -2°C° 0 mm 1 m/s 725 mmHg 94%
06:00 -1°C° 0 mm 1 m/s 725 mmHg 92%
07:00 0°C° 0 mm 1 m/s 725 mmHg 90%
08:00 -1°C° 0 mm 2 m/s 725 mmHg 81%
09:00 +2°C° 0 mm 2 m/s 725 mmHg 73%
10:00 +3°C° 0 mm 3 m/s 725 mmHg 64%
11:00 +4°C° 0 mm 3 m/s 725 mmHg 57%
12:00 +7°C° 0 mm 3 m/s 724 mmHg 50%
13:00 +8°C° 0 mm 3 m/s 724 mmHg 43%
14:00 +8°C° 0.1 mm 3 m/s 724 mmHg 45%
15:00 +8°C° 0.1 mm 3 m/s 724 mmHg 47%
16:00 +7°C° 0.1 mm 3 m/s 723 mmHg 49%
17:00 +6°C° 0.1 mm 2 m/s 724 mmHg 60%
18:00 +4°C° 0.1 mm 2 m/s 724 mmHg 72%
19:00 +4°C° 0.1 mm 1 m/s 724 mmHg 84%
20:00 +3°C° 0 mm 1 m/s 724 mmHg 86%
21:00 +2°C° 0 mm 1 m/s 724 mmHg 88%
22:00 +1°C° 0 mm 1 m/s 724 mmHg 90%
23:00 +1°C° 0 mm 1 m/s 724 mmHg 91%

Après-demain, 15 Avril, Jeudi

Heure Température Précipitation Vent Pression Humidité
00:00 0°C° 0 mm 1 m/s 724 mmHg 92%
01:00 -1°C° 0 mm 1 m/s 724 mmHg 93%
02:00 -1°C° 0 mm 1 m/s 724 mmHg 94%
03:00 -1°C° 0 mm 1 m/s 724 mmHg 94%
04:00 -2°C° 0 mm 1 m/s 723 mmHg 94%
05:00 -1°C° 0 mm 1 m/s 724 mmHg 91%
06:00 0°C° 0 mm 1 m/s 724 mmHg 89%
07:00 0°C° 0 mm 1 m/s 724 mmHg 86%
08:00 +2°C° 0 mm 1 m/s 724 mmHg 76%
09:00 +3°C° 0 mm 2 m/s 724 mmHg 67%
10:00 +4°C° 0 mm 3 m/s 723 mmHg 57%
11:00 +5°C° 0 mm 3 m/s 723 mmHg 52%
12:00 +7°C° 0 mm 3 m/s 723 mmHg 47%
13:00 +8°C° 0 mm 3 m/s 722 mmHg 41%
14:00 +8°C° 0.1 mm 3 m/s 722 mmHg 43%
15:00 +8°C° 0.1 mm 3 m/s 722 mmHg 44%
16:00 +8°C° 0.1 mm 3 m/s 721 mmHg 45%
17:00 +6°C° 0.1 mm 2 m/s 721 mmHg 57%
18:00 +4°C° 0.1 mm 2 m/s 722 mmHg 69%
19:00 +4°C° 0.1 mm 1 m/s 722 mmHg 80%
20:00 +3°C° 0 mm 1 m/s 722 mmHg 84%
21:00 +2°C° 0 mm 1 m/s 722 mmHg 87%
22:00 +1°C° 0 mm 1 m/s 722 mmHg 91%
23:00 0°C° 0 mm 1 m/s 722 mmHg 91%

16 Avril, Vendredi

Heure Température Précipitation Vent Pression Humidité
00:00 0°C° 0 mm 1 m/s 722 mmHg 92%
01:00 -1°C° 0 mm 1 m/s 721 mmHg 92%
02:00 -1°C° 0 mm 1 m/s 721 mmHg 93%
03:00 -1°C° 0 mm 1 m/s 721 mmHg 93%
04:00 -2°C° 0 mm 1 m/s 721 mmHg 94%
05:00 -1°C° 0 mm 1 m/s 721 mmHg 91%
06:00 0°C° 0 mm 1 m/s 721 mmHg 89%
07:00 0°C° 0 mm 1 m/s 721 mmHg 86%
08:00 +1°C° 0 mm 2 m/s 721 mmHg 77%
09:00 +2°C° 0 mm 3 m/s 721 mmHg 68%
10:00 +4°C° 0 mm 4 m/s 721 mmHg 59%
11:00 +6°C° 0 mm 4 m/s 720 mmHg 53%
12:00 +7°C° 0 mm 4 m/s 720 mmHg 47%
13:00 +10°C° 0 mm 4 m/s 719 mmHg 41%
14:00 +10°C° 0 mm 4 m/s 719 mmHg 40%
15:00 +10°C° 0 mm 4 m/s 719 mmHg 39%
16:00 +10°C° 0 mm 4 m/s 719 mmHg 39%
17:00 +8°C° 0 mm 4 m/s 719 mmHg 47%
18:00 +7°C° 0 mm 3 m/s 719 mmHg 54%
19:00 +5°C° 0 mm 3 m/s 719 mmHg 62%
20:00 +4°C° 0 mm 2 m/s 720 mmHg 69%
21:00 +2°C° 0 mm 2 m/s 720 mmHg 76%
22:00 +1°C° 0 mm 2 m/s 720 mmHg 83%
23:00 +1°C° 0 mm 1 m/s 720 mmHg 87%

17 Avril, Samedi

Heure Température Précipitation Vent Pression Humidité
00:00 +1°C° 0 mm 1 m/s 720 mmHg 90%
01:00 0°C° 0 mm 1 m/s 720 mmHg 93%
02:00 0°C° 0 mm 1 m/s 720 mmHg 94%
03:00 -1°C° 0 mm 1 m/s 720 mmHg 95%
04:00 -1°C° 0 mm 1 m/s 720 mmHg 95%
05:00 0°C° 0 mm 1 m/s 720 mmHg 92%
06:00 0°C° 0 mm 1 m/s 720 mmHg 89%
07:00 +1°C° 0 mm 1 m/s 720 mmHg 86%
08:00 +3°C° 0 mm 1 m/s 720 mmHg 77%
09:00 +4°C° 0 mm 2 m/s 720 mmHg 68%
10:00 +5°C° 0 mm 3 m/s 720 mmHg 59%
11:00 +8°C° 0 mm 3 m/s 720 mmHg 54%
12:00 +9°C° 0 mm 3 m/s 719 mmHg 49%
13:00 +10°C° 0 mm 3 m/s 719 mmHg 45%
14:00 +10°C° 0 mm 3 m/s 719 mmHg 46%
15:00 +10°C° 0 mm 3 m/s 719 mmHg 48%
16:00 +10°C° 0 mm 4 m/s 719 mmHg 50%
17:00 +9°C° 0 mm 3 m/s 719 mmHg 61%
18:00 +7°C° 0 mm 2 m/s 719 mmHg 72%
19:00 +5°C° 0 mm 2 m/s 719 mmHg 82%
20:00 +5°C° 0 mm 2 m/s 720 mmHg 86%
21:00 +5°C° 0 mm 1 m/s 720 mmHg 89%
22:00 +4°C° 0 mm 1 m/s 720 mmHg 93%
23:00 +3°C° 0 mm 1 m/s 720 mmHg 94%

18 Avril, Dimanche

Heure Température Précipitation Vent Pression Humidité
00:00 +3°C° 0 mm 1 m/s 720 mmHg 95%
01:00 +2°C° 0 mm 1 m/s 720 mmHg 96%
02:00 +2°C° 0 mm 1 m/s 720 mmHg 96%
03:00 +1°C° 0 mm 0 m/s 720 mmHg 95%
04:00 +2°C° 0 mm 0 m/s 720 mmHg 95%
05:00 +2°C° 0 mm 0 m/s 720 mmHg 94%
06:00 +2°C° 0 mm 0 m/s 720 mmHg 93%
07:00 +3°C° 0 mm 0 m/s 721 mmHg 92%
08:00 +5°C° 0 mm 1 m/s 721 mmHg 88%
09:00 +5°C° 0 mm 1 m/s 721 mmHg 85%
10:00 +6°C° 0 mm 1 m/s 721 mmHg 82%
11:00 +7°C° 0.1 mm 1 m/s 721 mmHg 78%
12:00 +8°C° 0.1 mm 1 m/s 721 mmHg 75%
13:00 +8°C° 0.1 mm 1 m/s 721 mmHg 71%
14:00 +8°C° 0.1 mm 1 m/s 721 mmHg 75%
15:00 +8°C° 0.1 mm 1 m/s 721 mmHg 79%
16:00 +7°C° 0.1 mm 1 m/s 721 mmHg 83%
17:00 +7°C° 0.3 mm 1 m/s 721 mmHg 87%
18:00 +6°C° 0.3 mm 1 m/s 721 mmHg 92%
19:00 +5°C° 0.3 mm 1 m/s 721 mmHg 96%
20:00 +5°C° 0.6 mm 1 m/s 721 mmHg 97%
21:00 +4°C° 0.6 mm 1 m/s 722 mmHg 98%
22:00 +4°C° 0.6 mm 1 m/s 722 mmHg 98%
23:00 +3°C° 0.2 mm 0 m/s 722 mmHg 98%
Voir plus

Nous avons besoin de votre consentement

Meteoprog et ses fournisseurs de services peuvent stocker et accéder à des données personnelles telles que des cookies, des identifiants d'appareils ou d'autres technologies similaires sur votre appareil et traiter ces données pour personnaliser le contenu et les publicités, ainsi que pour fournir des fonctionnalités de médias sociaux et analyser le trafic.

  • Stocker et/ou accéder à des informations sur votre appareil

    Des cookies, des identifiants d'appareils ou d'autres informations peuvent être stockés ou accessibles sur votre appareil aux fins indiquées ci-dessus.

  • Annonces et contenus personnalisés, mesure des annonces et des contenus, connaissance de l'audience et développement de produits

    Les annonces et le contenu peuvent être personnalisés en fonction d'un profil. D'autres données peuvent être ajoutées pour mieux personnaliser les annonces et le contenu. Les performances des publicités et du contenu peuvent être mesurées. Il est possible d'obtenir des informations sur le public qui a vu les publicités et le contenu. Ces données peuvent être utilisées pour développer ou améliorer l'expérience de l'utilisateur, les systèmes et les logiciels.

En cliquant sur "J'accepte", vous autorisez l'utilisation de cookies, des identifiants d'appareils, des balises web ou d'autres technologies similaires. Vos paramètres peuvent être modifiés dans le navigateur de votre appareil.

Dans certains cas, des intérêts légitimes peuvent être invoqués plutôt qu'un consentement. Vous pouvez en savoir plus à ce sujet dans notre Politique de confidentialité et de cookies.